Location: Kosice
(48.7167°N, 21.2500°E)
Time: 01:26:29
(UTC+02:00)

Daily predictions for brighter satellites

Satellite Brightness Start Highest point End
(mag) Time Altitude Azimuth Time Altitude Azimuth Time Altitude Azimuth
Cosmos 2082 Rocket 4.3 00:04:56 15° E 00:04:56 15° E 00:06:58 10° ENE
H-2A R/B 3.2 00:07:36 43° NNE 00:07:36 43° NNE 00:11:01 10° N
USA 238 DEB 3.7 00:08:38 52° WSW 00:10:27 76° NW 00:17:29 10° NE
USA 238 3.7 00:08:46 52° WSW 00:10:33 76° NW 00:17:35 10° NE
Cosmos 1452 Rocket 4.0 00:10:49 51° WNW 00:10:59 52° WNW 00:16:09 10° NNE
Cosmos 1656 4.0 00:08:33 10° NNW 00:13:54 55° ENE 00:13:54 55° ENE
SeaSat 1 2.8 00:11:08 10° NNE 00:15:32 63° NNW 00:15:32 63° NNW
CZ-4 R/B 4.3 00:13:49 10° N 00:18:01 59° NNW 00:18:01 59° NNW
Cosmos 1634 Rocket 4.2 00:12:56 10° NNW 00:19:06 58° W 00:19:22 57° WSW
Meteor 1-24 Rocket 3.7 00:25:30 10° NNW 00:30:35 75° NNW 00:30:35 75° NNW
SL-19 R/B 4.5 00:25:56 10° N 00:31:44 68° WNW 00:32:02 66° W
USA 215 4.2 00:29:50 10° ENE 00:36:00 46° N 00:42:09 10° W
Meteor 2-20 Rocket 4.5 00:36:50 66° W 00:37:01 67° WNW 00:43:07 10° N
Cosmos 2180 Rocket 4.4 00:32:23 10° N 00:38:48 80° W 00:38:55 79° WSW
Cosmos 2228 4.5 00:40:44 34° NE 00:40:44 34° NE 00:43:21 10° NNE
ALOS 2 4.3 00:42:40 26° NW 00:42:40 26° NW 00:45:08 10° NNW
Meteor 2-11 Rocket 4.3 00:36:04 10° N 00:42:11 87° WNW 00:42:11 87° WNW
Mayak 0.3 00:38:24 10° N 00:41:20 33° NW 00:41:20 33° NW
NOSS 3-2 (C) 3.3 00:48:11 82° W 00:48:24 85° NW 00:55:13 10° NE
COSMOS 2406 3.4 00:52:02 62° WNW 00:52:09 62° WNW 00:57:52 10° NNE
Cosmos 1980 Rocket 3.0 00:47:28 10° NNW 00:52:56 45° NE 00:54:03 40° E
ADEOS Rocket 4.3 00:46:38 10° N 00:53:49 44° WNW 00:56:28 33° WSW
Cosmos 1110 Rocket 4.3 00:56:24 64° NNW 00:56:24 64° NNW 01:01:00 10° NNE
Cosmos 2322 Rocket 4.4 00:55:26 10° N 00:59:49 22° NE 01:04:11 10° E
Cosmos 1238 Rocket 4.1 00:57:18 10° N 01:00:39 43° N 01:00:39 43° N
Lacrosse 5 4.2 01:07:56 13° E 01:07:56 13° E 01:08:56 10° E
CZ-4C R/B 2.8 01:00:38 10° NW 01:07:42 76° SW 01:08:35 69° S
Cosmos 2344 3.5 01:07:53 64° SSW 01:09:11 79° SE 01:17:48 10° NE
ATLAS 3B R/B 3.4 01:12:50 30° W 01:15:58 48° NW 01:22:30 10° NE
Cosmos 1092 Rocket 3.9 01:18:17 74° ESE 01:18:31 76° E 01:24:40 10° NNE
CZ-4B R/B 4.2 01:15:57 10° N 01:19:55 41° NW 01:19:55 41° NW
CENTAUR R/B 2.4 01:21:02 80° S 01:21:23 85° SE 01:28:32 10° NE
Cosmos 1833 Rocket 2.8 01:21:56 67° E 01:21:56 67° E 01:27:07 10° NNE
CZ-4B R/B 3.8 01:27:24 24° NE 01:27:24 24° NE 01:29:26 10° N
Cosmos 1302 Rocket 4.1 01:27:49 71° NNW 01:27:49 71° NNW 01:32:37 10° NNE
NOSS 3-2 (A) 4.5 01:30:52 28° W 01:33:36 43° NNW 01:40:10 10° NE
Cosmos 1626 4.0 01:30:56 10° N 01:33:04 30° NNE 01:33:04 30° NNE
Cosmos 2278 4.4 01:29:26 10° NW 01:33:45 42° WNW 01:33:45 42° WNW
Nadezhda 4 Rocket 4.1 01:34:37 59° W 01:34:56 60° WNW 01:41:01 10° N
ASTEX 1 4.1 01:39:08 45° NW 01:39:08 45° NW 01:42:58 10° NNW
Landsat 5 4.2 01:41:35 55° NE 01:41:35 55° NE 01:45:22 10° N
Cosmos 1697 Rocket 3.2 01:35:33 10° NW 01:39:54 46° WNW 01:39:54 46° WNW
Cosmos 1812 Rocket 4.3 01:42:09 53° NE 01:42:09 53° NE 01:45:47 10° NNE
Meteor 1-21 Rocket 4.3 01:35:36 10° NNW 01:41:11 66° W 01:41:11 66° W
Cosmos 1627 Rocket 4.4 01:41:39 71° SSE 01:42:21 81° E 01:48:45 10° N
H-2A R/B 4.3 01:44:43 17° WNW 01:44:43 17° WNW 01:46:19 10° NW
Cosmos 2026 Rocket 3.9 01:44:54 69° SSE 01:45:36 79° E 01:51:57 10° NNE
Cosmos 2082 Rocket 2.1 01:46:47 87° SW 01:46:52 89° WNW 01:52:37 10° NNE
Cosmos 1553 Rocket 4.2 01:42:40 10° N 01:49:01 67° ENE 01:50:28 52° SE
Cosmos 2360 4.3 01:54:14 10° NNW 01:59:24 60° W 01:59:24 60° W
S3M 4.1 01:55:59 10° N 02:02:09 71° E 02:03:43 50° SE
Genesis I 4.2 02:03:33 47° NNE 02:03:33 47° NNE 02:06:34 10° NE
ARIANE 5 R/B 4.4 02:00:02 10° NE 02:04:02 22° E 02:05:58 18° ESE
Cosmos 968 Rocket 3.5 02:02:17 10° NNW 02:06:55 69° WNW 02:06:55 69° WNW
Cosmos 1703 4.1 02:04:32 10° N 02:07:46 48° NE 02:07:46 48° NE
Cosmos 1992 Rocket 3.8 02:09:11 86° S 02:09:17 89° ESE 02:14:34 10° NNE
Cosmos 1953 3.9 02:11:43 29° NW 02:11:43 29° NW 02:14:25 10° N
Cosmos 1726 4.1 02:12:38 23° E 02:12:38 23° E 02:15:29 10° NE
SL-16 R/B 2.5 02:09:15 10° NNW 02:14:54 63° ENE 02:18:02 27° SE
Cosmos 1340 3.7 02:17:41 41° ENE 02:17:41 41° ENE 02:20:42 10° NNE
USA 215 4.2 02:12:09 10° E 02:18:19 47° N 02:24:31 10° WNW
CZ-2D R/B 2.7 02:13:26 10° NNE 02:18:41 49° E 02:19:52 41° SE
Meteor 1-16 Rocket 4.2 02:18:07 65° SSW 02:19:03 87° W 02:25:03 10° NNE
AQUA 4.3 02:15:14 10° NNE 02:19:54 50° E 02:20:23 48° ESE
SL-16 R/B 2.4 02:23:46 47° SSE 02:25:47 88° WSW 02:32:06 10° NNW
Spot 2 4.3 02:22:28 10° NNE 02:27:23 81° ESE 02:27:54 71° SSE
Cosmos 1766 Rocket 3.7 02:23:31 10° N 02:27:53 68° E 02:28:05 67° E
COSMOS 2487 3.5 02:30:53 45° NNE 02:30:53 45° NNE 02:33:24 10° NNE
Cosmos 1655 Rocket 3.9 02:29:42 56° SSW 02:31:06 78° W 02:37:23 10° N
Cosmos 2360 Rocket 3.4 02:28:16 10° NNW 02:33:39 42° NE 02:39:00 10° ESE
Resurs 1-4 Rocket 2.3 02:28:55 10° NNE 02:34:10 66° ESE 02:35:21 50° SSE
BREEZE-M R/B 2.7 02:35:38 60° ESE 02:35:38 60° ESE 02:39:17 10° E
CBERS-1 4.0 02:30:23 10° NNE 02:35:31 75° ESE 02:36:26 59° SSE
Cosmos 1980 Rocket 3.1 02:31:43 10° NW 02:35:46 32° W 02:35:46 32° W
SL-8 R/B 3.6 02:37:08 74° SSE 02:37:08 74° SSE 02:41:37 10° ESE
Aureole 2 Rocket 3.3 02:38:29 10° NNW 02:41:25 49° NW 02:41:25 49° NW
UNK 3.7 02:43:50 64° W 02:43:50 64° W 02:48:20 10° NNW
Cosmos 2322 Rocket 2.1 02:38:55 10° NNW 02:44:38 87° WSW 02:47:33 31° SSE
Cosmos 1908 3.3 02:46:56 75° E 02:46:56 75° E 02:50:48 10° NNE
Lacrosse 5 1.7 02:47:07 65° SSW 02:47:51 80° SE 02:52:56 10° NE
Cosmos 2266 Rocket 3.9 02:51:08 42° S 02:53:25 87° E 02:59:32 10° N
CZ-4C R/B 4.3 02:50:26 10° WNW 02:53:42 19° W 02:53:42 19° W
Cosmos 1818 3.8 02:56:42 43° WSW 02:58:16 60° NW 03:03:42 10° NE
CZ-4B R/B 3.8 03:00:49 15° NW 03:00:49 15° NW 03:01:43 10° NW
NPP 3.7 02:54:35 10° N 02:59:57 65° WNW 03:01:22 46° SW
IRS-1C 4.0 02:56:33 10° NNE 03:01:56 89° WNW 03:03:44 44° SSW
Cosmos 1346 Rocket 4.2 03:02:56 26° WNW 03:02:56 26° WNW 03:06:07 10° N
IRS P6 4.5 02:57:33 10° NNE 03:02:50 83° WNW 03:04:28 46° SSW
Cosmos 332 Rocket 3.7 03:02:34 55° SSW 03:03:39 83° WNW 03:08:32 10° NNE
H-2A R/B 2.7 02:59:18 10° NNE 03:03:46 76° ESE 03:04:55 49° S
Meteor 2-1 Rocket 4.3 03:02:52 34° S 03:05:27 75° E 03:11:06 10° NNE
Cosmos 1833 Rocket 4.2 03:03:37 20° W 03:05:59 26° NW 03:10:39 10° NNE
Cosmos 1408 Rocket 3.5 03:01:59 10° NNW 03:06:17 63° W 03:06:40 60° WSW
Cosmos 2315 Rocket 3.9 03:01:24 10° N 03:07:38 87° W 03:11:34 24° S
BREEZE-M DEB (TANK) 1.8 03:08:29 75° NNE 03:08:29 75° NNE 03:13:09 10° E
Cosmos 1743 Rocket 3.6 03:06:46 10° N 03:11:07 76° E 03:13:03 32° SSE
CENTAUR R/B 3.9 03:08:11 15° W 03:12:55 35° NNW 03:19:41 10° NE
Cosmos 1500 Rocket 3.8 03:08:56 10° N 03:13:24 67° ENE 03:16:06 23° SSE
BREEZE-M DEB (TANK) 2.5 03:13:27 62° SW 03:13:58 84° SSE 03:16:31 10° ENE
SL-08 R/B 3.8 03:14:11 40° WSW 03:14:28 40° W 03:19:07 10° NNW
IRS-1D 3.5 03:12:24 10° N 03:17:34 72° WNW 03:19:32 39° SW
Cosmos 2058 3.1 03:13:56 10° NNW 03:18:02 50° W 03:18:17 49° WSW
UNKNOWN OBJECT B 3.4 03:17:53 10° NNE 03:21:30 47° E 03:23:00 29° SSE
Cosmos 2219 Rocket 4.0 03:16:37 10° NNW 03:21:45 33° NE 03:26:52 10° ESE
Spot 4 Rocket 4.0 03:16:38 10° NNE 03:21:51 89° ESE 03:24:14 33° SSW
Timation 2 Rocket 4.2 03:19:09 31° SSW 03:22:39 83° ESE 03:29:34 10° NNE
deb Kosmos-1763 4.4 03:22:39 48° W 03:23:02 50° WNW 03:26:45 10° NNE
Cosmos 405 3.8 03:20:09 10° N 03:23:33 48° ENE 03:26:05 16° SSE
ADEOS II 2.9 03:20:18 10° NNE 03:25:24 48° E 03:29:33 15° S
Cosmos-2242 3.6 03:26:49 36° W 03:27:27 38° WNW 03:31:31 10° N
Cosmos 2082 Rocket 4.0 03:28:37 14° W 03:31:47 21° NW 03:36:05 10° N
Cosmos 1842 Rocket 3.5 03:30:07 33° S 03:32:06 90° ESE 03:36:38 10° N
COSMOS 2455 3.5 03:28:39 21° S 03:32:27 50° ESE 03:38:15 10° NE
Cosmos 2322 3.8 03:30:36 10° NNW 03:36:19 80° ENE 03:41:58 10° SSE
Shenzhou-11 Module 4.3 03:40:41 14° SE 03:40:41 14° SE 03:41:19 10° SE
Cosmos 1300 2.6 03:40:41 37° SSW 03:42:07 78° W 03:45:59 10° N
CZ-2D R/B 3.5 03:38:14 10° NNE 03:42:29 89° E 03:44:52 26° SSW
In-Cosmos 22 Rocket 4.1 03:37:03 10° NNW 03:42:40 89° ENE 03:48:04 10° S
Cosmos 2237 4.2 03:37:33 10° NNW 03:43:18 87° WSW 03:48:59 10° SSE
ARIANE 5 R/B 2.7 03:38:23 10° N 03:43:33 60° WNW 03:46:18 27° SW
Cosmos 371 Rocket 4.1 03:43:56 27° WSW 03:45:54 38° WNW 03:50:30 10° N
Cosmos 1726 3.2 03:47:12 27° W 03:47:40 28° WNW 03:50:54 10° NNW
Cosmos 2084 3.1 03:45:15 10° NW 03:49:07 61° SW 03:52:56 10° SSE
Nadezhda 2 Rocket 4.5 03:47:03 22° SSW 03:51:03 65° WNW 03:57:10 10° N
Cosmos 1892 3.1 03:49:02 10° N 03:52:52 63° ENE 03:56:39 10° SSE
Cosmos 1244 Rocket 4.5 03:51:43 18° SSW 03:56:30 73° W 04:02:43 10° N
SJ 16-02 4.1 03:53:21 10° N 03:56:48 22° NE 04:00:13 10° ESE
Cosmos 2151 4.0 03:53:16 10° NNW 03:56:55 27° W 03:57:47 25° WSW
BREEZE-M DEB (TANK) 2.5 03:52:24 10° W 03:57:44 89° N 04:00:12 10° ESE
CZ-2D R/B 3.2 03:53:54 10° N 03:58:32 29° WNW 04:01:12 19° WSW
SL-16 R/B 3.2 03:54:07 10° NW 03:58:33 24° WSW 03:59:47 22° WSW
USA 215 3.4 03:54:26 10° ESE 04:00:58 82° NNE 04:07:33 10° NW
Sich 1 3.7 03:58:28 10° N 04:02:42 56° ENE 04:06:55 10° SSE
Cosmos 1833 4.2 04:04:46 19° SSW 04:08:57 83° WNW 04:14:39 10° NNE
Cosmos 1666 Rocket 4.2 04:04:32 10° N 04:08:57 57° ENE 04:13:18 10° SSE
SL-16 R/B 4.0 04:08:52 16° WSW 04:10:16 17° W 04:14:11 10° NW
Resurs 1-4 Rocket 3.6 04:09:35 10° N 04:13:33 22° WNW 04:16:25 14° W
Meteor 2-13 Rocket 4.5 04:08:27 10° S 04:14:36 89° W 04:20:49 10° N
Helios 1A Rocket 2.9 04:10:59 10° NNE 04:15:09 77° WNW 04:18:44 14° SSW
ADEOS 3.6 04:10:30 10° N 04:15:41 65° WNW 04:20:12 14° SSW
PSLV R/B 4.2 04:13:09 10° NNE 04:17:18 54° E 04:21:24 10° S
Cosmos 2360 Rocket 2.7 04:12:25 10° NW 04:17:38 38° WSW 04:22:49 10° S
Tiangong 2 2.5 04:16:34 20° SSW 04:17:43 25° S 04:20:25 10° ESE
Cosmos 405 Rocket 3.3 04:14:13 10° S 04:18:09 60° E 04:22:10 10° NNE
SL-8 R/B 4.3 04:15:10 12° W 04:19:02 34° SSW 04:23:20 10° SSE
SAR-Lupe-2 3.9 04:16:35 11° S 04:19:50 43° W 04:23:17 10° NNW
Okean O Rocket 4.2 04:17:21 10° NE 04:20:32 19° E 04:23:40 10° SE
Cosmos 2221 2.7 04:17:58 16° SSW 04:21:08 51° WNW 04:25:20 10° N
Cosmos 304 Rocket 4.3 04:19:34 18° SW 04:22:50 43° WNW 04:27:26 10° NNE
Cosmos 1633 Rocket 3.4 04:21:02 10° N 04:25:25 70° E 04:29:47 10° SSE
Cosmos 1898 Rocket 3.5 04:20:30 10° NNW 04:25:40 63° WSW 04:30:46 10° S
Cosmos 2322 Rocket 3.7 04:24:42 10° WNW 04:27:51 15° W 04:29:14 14° WSW
Nadezhda 1 Rocket 4.0 04:22:07 10° NNW 04:28:13 68° W 04:34:23 10° S
Cosmos 1441 Rocket 3.1 04:25:03 11° SSW 04:28:40 73° WNW 04:32:32 10° N
Cosmos 1386 Rocket 4.4 04:23:57 10° S 04:29:59 88° W 04:36:09 10° N
COSMOS 2428 2.7 04:24:54 10° NNW 04:30:37 72° WSW 04:36:19 10° SSE
Lacrosse 5 2.9 04:26:26 10° W 04:31:13 39° NNW 04:35:59 10° NE
Meteor 1-28 Rocket 3.5 04:29:36 10° SSE 04:33:24 71° ENE 04:37:13 10° N
Atlas Centaur 2 4.3 04:34:00 10° SSW 04:36:07 12° S 04:38:07 10° SSE
Cosmos 2333 4.3 04:31:43 10° NW 04:37:23 57° WSW 04:43:00 10° S
Cosmos 2227 Rocket 4.4 04:33:40 10° SSE 04:38:06 24° ESE 04:42:32 10° NE
Cosmos 2333 Rocket 2.3 04:32:21 10° NNW 04:38:10 87° WSW 04:43:54 10° SSE
Meteor 2-8 Rocket 4.5 04:33:31 10° N 04:39:41 89° W 04:45:50 10° S
Meteor 1-4 Rocket 4.0 04:36:32 10° N 04:39:52 40° ENE 04:43:13 10° SE
Cosmos 1408 2.7 04:36:22 10° N 04:40:08 82° E 04:43:52 10° S
Cosmos 2208 Rocket 4.1 04:35:13 10° SSW 04:40:41 76° WNW 04:46:10 10° NNE
Cosmos 1937 Rocket 3.6 04:38:35 10° NNW 04:43:50 61° WSW 04:49:03 10° S
Cosmos 1805 Rocket 4.1 04:40:54 10° NNW 04:44:54 37° W 04:48:54 10° SSW
BREEZE-M DEB (TANK) 3.9 04:41:18 11° WSW 04:45:19 71° S 04:59:18 10° E
Cosmos 2237 Rocket 2.8 04:41:50 10° NNW 04:47:29 63° ENE 04:53:04 10° SE
Cosmos 1455 2.4 04:48:35 10° SSW 04:52:24 55° WNW 04:56:15 10° N
Cosmos 841 Rocket 4.0 04:49:04 10° S 04:54:08 62° ESE 04:59:14 10° NNE
Cosmos 1980 4.0 04:48:28 10° NNW 04:54:11 75° ENE 04:59:51 10° SSE
Cosmos 990 Rocket 4.3 04:51:32 10° NW 04:56:29 45° WSW 05:01:21 10° S
USA 229 DEB 3.8 04:50:56 10° SW 04:57:40 84° NW 05:04:42 10° NE
USA 229 3.8 04:51:03 10° SW 04:57:47 84° NW 05:04:49 10° NE
NOSS 3-1 (A) 4.2 04:52:48 10° SSW 04:58:17 50° ESE 05:04:31 10° NE
Cosmos 1814 Rocket 4.0 04:58:12 10° SSW 05:03:25 90° WNW 05:08:37 10° NNE
SL-19 R/B 4.4 04:59:26 10° SSE 05:03:53 85° WSW 05:07:45 10° NNW
ADEOS II 3.1 05:00:26 10° N 05:04:53 29° WNW 05:09:20 10° WSW
SL-08 ROCKET BODY 4.4 04:59:38 10° S 05:05:39 88° W 05:11:37 10° N
Cosmos 2219 Rocket 2.4 05:00:27 10° NW 05:05:56 51° WSW 05:11:24 10° S
Cosmos 292 Rocket 3.9 05:01:28 10° SSW 05:06:18 70° WNW 05:11:11 10° NNE
